Hourly Data Report for October 10, 2013

All times are specified in Local Standard Time (LST). Add 1 hour to adjust for Daylight Saving Time where and when it is observed.

POND INLET A
NUNAVUT

72°41'22.000" N
77°58'08.000" W
61.60 m
2403206
71095
YIO

Download Data

Hourly Data (October 2013)
Hourly Data Report for October 10, 2013
Temp Definition
°C
Dew Point Temp Definition
°C
Rel Hum Definition
%
Wind Dir Definition
10's deg

Wind Spd Definition
km/h
Visibility Definition
km
Stn Press Definition
kPa
Hmdx Definition


Wind Chill Definition


Weather Definition


TIME
00:00 Legend Double Dagger -10.4 -13.9 76 15 24 16.1 100.56   -19 LegendNANA
01:00 Legend Double Dagger -9.1 -12.9 74 16 22 16.1 100.59   -17 LegendNANA
02:00 Legend Double Dagger -9.4 -13.1 75 16 21 16.1 100.64   -17 LegendNANA
03:00 Legend Double Dagger -10.1 -13.2 78 15 22 16.1 100.68   -18 LegendNANA
04:00 Legend Double Dagger -8.8 -12.5 75 15 18 16.1 100.74   -16 LegendNANA
05:00 Legend Double Dagger -8.9 -12.2 77 15 21 16.1 100.76   -17 LegendNANA
06:00 Legend Double Dagger -8.7 -11.9 78 16 15 16.1 100.79   -15 LegendNANA
07:00 Legend Double Dagger -8.8 -11.8 79 16 18 16.1 100.82   -16 LegendNANA
08:00 Legend Double Dagger -8.9 -11.5 82 15 18 6.4 100.84   -16 LegendNANA
09:00 Legend Double Dagger -8.8 -11.2 83 16 17 4.8 100.87   -16 LegendNANA
10:00 Legend Double Dagger -8.2 -10.8 82 16 15 6.4 100.89   -15 LegendNANA
11:00 Legend Double Dagger -7.8 -10.5 81 16 11 16.1 100.92   -13 LegendNANA
12:00 Legend Double Dagger -7.7 -10.3 82 16 15 16.1 100.94   -14 LegendNANA
13:00 Legend Double Dagger -7.7 -10.5 80 16 17 16.1 100.98   -14 LegendNANA
14:00 Legend Double Dagger -7.8 -10.5 81 16 15 16.1 101.02   -14 LegendNANA
15:00 Legend Double Dagger -7.8 -10.4 82 16 15 16.1 101.06   -14 LegendNANA
16:00 Legend Double Dagger -7.9 -10.6 81 16 15 16.1 101.12   -14 LegendNANA
17:00 Legend Double Dagger -8.2 -10.8 82 16 17 16.1 101.15   -15 LegendNANA
18:00 Legend Double Dagger -8.3 -11.0 81 15 15 16.1 101.18   -15 LegendNANA
19:00 Legend Double Dagger -8.5 -10.9 83 16 18 16.1 101.18   -16 LegendNANA
20:00 Legend Double Dagger -8.9 -11.1 84 17 15 16.1 101.20   -15 LegendNANA
21:00 Legend Double Dagger -8.8 -10.9 85 16 15 16.1 101.22   -15 LegendNANA
22:00 Legend Double Dagger -8.6 -10.5 86 15 11 16.1 101.24   -14 LegendNANA
23:00 Legend Double Dagger -8.5 -10.4 86 16 13 16.1 101.25   -14 LegendNANA

Notes on Data Quality.

Legend

  • E = Estimated
  • M = Missing
  • NA = Not Available
  • ‡ = Partner data that is not subject to review by the National Climate Archives
Date modified: